THY9QA LTFM-LROP

Flight info

Callsign THY9QA
Flight time 0h 46m
Altitude 32000
Route IBLAX1D/35L IBLAX P727 BGS L622 GONGO DCT KOMAN DCT OBUGA
Aircraft A359/H-SDE2E3GHIJ3J4J5LM1ORWXY/LB1D1

Departure

Time 2026-05-04 15:11
Airport İstanbul Airport (LTFM)

Arrival

Time 2026-05-04 15:57
Airport Bucharest Henri Coandă International Airport (LROP)
Time Latitude Longitude Altitude Speed Heading
2026-05-04 14:39 41.26704 28.73443 340 ft 0 kts 92°
2026-05-04 14:58 41.26704 28.73433 335 ft 2 kts 91°
2026-05-04 14:58 41.26705 28.73411 338 ft 2 kts 90°
2026-05-04 14:59 41.26704 28.73389 335 ft 2 kts 88°
2026-05-04 14:59 41.26704 28.73367 335 ft 2 kts 91°
2026-05-04 14:59 41.26724 28.73337 335 ft 2 kts 166°
2026-05-04 15:00 41.26740 28.73333 336 ft 2 kts 176°
2026-05-04 15:00 41.26756 28.73333 335 ft 2 kts 179°
2026-05-04 15:00 41.26773 28.73333 335 ft 2 kts 179°
2026-05-04 15:01 41.26805 28.73332 338 ft 2 kts 180°
2026-05-04 15:01 41.26810 28.73332 335 ft 0 kts 179°
2026-05-04 15:04 41.26792 28.73333 338 ft 8 kts 179°
2026-05-04 15:04 41.26737 28.73315 337 ft 6 kts 226°
2026-05-04 15:05 41.26719 28.73224 340 ft 15 kts 271°
2026-05-04 15:05 41.26718 28.73058 340 ft 14 kts 269°
2026-05-04 15:05 41.26717 28.72977 340 ft 0 kts 269°
2026-05-04 15:06 41.26717 28.72962 340 ft 0 kts 269°
2026-05-04 15:06 41.26716 28.72910 340 ft 13 kts 269°
2026-05-04 15:07 41.26713 28.72589 336 ft 11 kts 267°
2026-05-04 15:07 41.26761 28.72512 338 ft 11 kts 352°
2026-05-04 15:07 41.26785 28.72512 336 ft 0 kts
2026-05-04 15:07 41.26799 28.72513 337 ft 6 kts
2026-05-04 15:08 41.26809 28.72512 340 ft 0 kts 359°
2026-05-04 15:10 41.26813 28.72512 340 ft 6 kts 359°
2026-05-04 15:10 41.27323 28.72503 336 ft 103 kts 359°
2026-05-04 15:10 41.29032 28.72474 767 ft 166 kts 358°
2026-05-04 15:11 41.30156 28.72442 1778 ft 161 kts
2026-05-04 15:11 41.31342 28.72441 2269 ft 180 kts
2026-05-04 15:11 41.32640 28.72462 2780 ft 191 kts
2026-05-04 15:11 41.34026 28.72485 3183 ft 210 kts
2026-05-04 15:12 41.35563 28.72504 3556 ft 229 kts
2026-05-04 15:12 41.37181 28.72514 4275 ft 234 kts 359°
2026-05-04 15:12 41.38771 28.72169 5043 ft 237 kts 342°
2026-05-04 15:12 41.40292 28.71297 5850 ft 239 kts 335°
2026-05-04 15:13 41.41789 28.70320 6637 ft 241 kts 335°
2026-05-04 15:13 41.43302 28.69329 7377 ft 244 kts 336°
2026-05-04 15:13 41.44831 28.68302 8118 ft 247 kts 335°
2026-05-04 15:13 41.46340 28.67181 8889 ft 250 kts 335°
2026-05-04 15:14 41.47863 28.66036 9631 ft 253 kts 336°
2026-05-04 15:14 41.49391 28.64897 10277 ft 258 kts 337°
2026-05-04 15:14 41.51018 28.63700 10560 ft 276 kts 337°
2026-05-04 15:14 41.52763 28.62422 10790 ft 294 kts 336°
2026-05-04 15:15 41.54609 28.61066 11055 ft 309 kts 336°
2026-05-04 15:15 41.56518 28.59655 11511 ft 317 kts 336°
2026-05-04 15:15 41.58463 28.58215 12034 ft 322 kts 336°
2026-05-04 15:16 41.62451 28.55263 13081 ft 332 kts 336°
2026-05-04 15:16 41.64490 28.53755 13612 ft 337 kts 336°
2026-05-04 15:16 41.68614 28.50703 14552 ft 344 kts 336°
2026-05-04 15:17 41.70723 28.49139 15039 ft 348 kts 336°
2026-05-04 15:17 41.74991 28.45973 16027 ft 353 kts 335°
2026-05-04 15:17 41.77148 28.44371 16497 ft 356 kts 335°
2026-05-04 15:18 41.79335 28.42746 16988 ft 360 kts 335°
2026-05-04 15:18 41.81536 28.41109 17459 ft 363 kts 335°
2026-05-04 15:18 41.83754 28.39458 17928 ft 366 kts 335°
2026-05-04 15:19 41.88252 28.36106 18786 ft 372 kts 335°
2026-05-04 15:19 41.90519 28.34414 19205 ft 374 kts 335°
2026-05-04 15:19 41.95078 28.31008 20026 ft 379 kts 336°
2026-05-04 15:20 41.97320 28.29091 20421 ft 386 kts 328°
2026-05-04 15:20 41.99291 28.26584 20830 ft 395 kts 316°
2026-05-04 15:20 42.01022 28.23670 21229 ft 401 kts 312°
2026-05-04 15:20 42.02631 28.20574 21608 ft 406 kts 309°
2026-05-04 15:21 42.04189 28.17381 21987 ft 409 kts 308°
2026-05-04 15:21 42.05738 28.14157 22371 ft 411 kts 308°
2026-05-04 15:21 42.08869 28.07719 23106 ft 416 kts 309°
2026-05-04 15:22 42.10500 28.04429 23476 ft 418 kts 309°
2026-05-04 15:22 42.12107 28.01212 23800 ft 420 kts 309°
2026-05-04 15:22 42.15392 27.94661 24035 ft 422 kts 309°
2026-05-04 15:23 42.17034 27.91384 24035 ft 422 kts 309°
2026-05-04 15:23 42.18679 27.88098 24034 ft 423 kts 309°
2026-05-04 15:23 42.20347 27.84831 24038 ft 421 kts 312°
2026-05-04 15:23 42.22238 27.81843 24038 ft 416 kts 320°
2026-05-04 15:24 42.26793 27.77229 24038 ft 407 kts 334°
2026-05-04 15:24 42.31692 27.73530 24039 ft 406 kts 336°
2026-05-04 15:25 42.34194 27.71736 24042 ft 406 kts 337°
2026-05-04 15:25 42.36692 27.69951 24043 ft 406 kts 336°
2026-05-04 15:25 42.39190 27.68154 24041 ft 406 kts 336°
2026-05-04 15:26 42.44194 27.64513 24279 ft 409 kts 336°
2026-05-04 15:26 42.46664 27.62702 24648 ft 410 kts 336°
2026-05-04 15:26 42.51702 27.58992 25292 ft 414 kts 335°
2026-05-04 15:27 42.54240 27.57120 25600 ft 416 kts 335°
2026-05-04 15:27 42.59279 27.53162 26282 ft 423 kts 330°
2026-05-04 15:28 42.64138 27.48555 26984 ft 429 kts 328°
2026-05-04 15:28 42.66563 27.46177 27350 ft 431 kts 328°
2026-05-04 15:28 42.71456 27.41336 28147 ft 437 kts 327°
2026-05-04 15:29 42.73893 27.38924 28538 ft 439 kts 327°
2026-05-04 15:30 42.83930 27.29003 30179 ft 451 kts 327°
2026-05-04 15:30 42.91548 27.21452 31730 ft 448 kts 326°
2026-05-04 15:31 42.96565 27.16466 32034 ft 440 kts 326°
2026-05-04 15:31 42.99015 27.14024 32032 ft 437 kts 326°
2026-05-04 15:32 43.06720 27.06358 32021 ft 473 kts 326°
2026-05-04 15:32 43.12070 27.01057 32026 ft 474 kts 327°
2026-05-04 15:34 43.25839 26.88684 32030 ft 475 kts 328°
2026-05-04 15:34 43.34110 26.81166 32029 ft 476 kts 328°
2026-05-04 15:35 43.42403 26.73566 32032 ft 477 kts 328°
2026-05-04 15:36 43.50673 26.65964 32034 ft 478 kts 328°
2026-05-04 15:36 43.56200 26.60874 32041 ft 478 kts 328°
2026-05-04 15:37 43.61654 26.55839 31310 ft 472 kts 327°
2026-05-04 15:37 43.64402 26.53297 30266 ft 479 kts 327°
2026-05-04 15:37 43.67178 26.50731 29325 ft 480 kts 327°
2026-05-04 15:38 43.69952 26.48160 28607 ft 477 kts 327°
2026-05-04 15:38 43.72691 26.45617 27961 ft 472 kts 327°
2026-05-04 15:38 43.75405 26.43093 27319 ft 467 kts 327°
2026-05-04 15:38 43.78062 26.40619 26718 ft 463 kts 327°
2026-05-04 15:39 43.80717 26.38145 26128 ft 458 kts 327°
2026-05-04 15:39 43.83347 26.35691 25523 ft 453 kts 328°
2026-05-04 15:39 43.88419 26.30946 24502 ft 415 kts 328°
2026-05-04 15:40 43.90738 26.28769 24086 ft 390 kts 328°
2026-05-04 15:40 43.92928 26.26712 23718 ft 367 kts 328°
2026-05-04 15:40 43.94990 26.24776 23174 ft 350 kts 329°
2026-05-04 15:40 43.96965 26.22924 22326 ft 343 kts 329°
2026-05-04 15:41 43.98960 26.21053 20990 ft 350 kts 329°
2026-05-04 15:41 44.00858 26.18849 19568 ft 363 kts 317°
2026-05-04 15:41 44.02480 26.16099 18111 ft 373 kts 310°
2026-05-04 15:41 44.03999 26.13125 16527 ft 379 kts 309°
2026-05-04 15:42 44.05489 26.10114 15213 ft 375 kts 309°
2026-05-04 15:42 44.06953 26.07139 14042 ft 369 kts 309°
2026-05-04 15:42 44.08370 26.04242 13180 ft 353 kts 309°
2026-05-04 15:42 44.09743 26.01435 11864 ft 349 kts 309°
2026-05-04 15:43 44.11088 25.98696 10711 ft 344 kts 309°
2026-05-04 15:43 44.12390 25.96029 10180 ft 321 kts 310°
2026-05-04 15:43 44.13621 25.93502 9920 ft 309 kts 310°
2026-05-04 15:43 44.14808 25.91074 9731 ft 297 kts 310°
2026-05-04 15:44 44.15930 25.88770 9487 ft 276 kts 310°
2026-05-04 15:44 44.16962 25.86644 9218 ft 255 kts 310°
2026-05-04 15:44 44.17936 25.84643 8869 ft 247 kts 311°
2026-05-04 15:44 44.18897 25.82686 8605 ft 243 kts 311°
2026-05-04 15:45 44.19843 25.80754 8350 ft 239 kts 311°
2026-05-04 15:45 44.20775 25.78846 8067 ft 237 kts 311°
2026-05-04 15:45 44.21702 25.76945 7769 ft 236 kts 311°
2026-05-04 15:45 44.22626 25.75048 7486 ft 234 kts 310°
2026-05-04 15:46 44.23518 25.73207 7276 ft 230 kts 310°
2026-05-04 15:46 44.24408 25.71374 7023 ft 228 kts 310°
2026-05-04 15:46 44.25298 25.69543 6744 ft 227 kts 310°
2026-05-04 15:46 44.26183 25.67721 6466 ft 226 kts 310°
2026-05-04 15:47 44.27078 25.65924 6183 ft 224 kts 312°
2026-05-04 15:47 44.28222 25.64559 6059 ft 213 kts 340°
2026-05-04 15:47 44.29641 25.64146 6044 ft 208 kts
2026-05-04 15:47 44.31025 25.64698 6048 ft 207 kts 22°
2026-05-04 15:48 44.32441 25.65081 6053 ft 210 kts
2026-05-04 15:48 44.33881 25.64967 6048 ft 211 kts 357°
2026-05-04 15:48 44.36700 25.64554 6043 ft 199 kts 356°
2026-05-04 15:49 44.38075 25.64344 6042 ft 198 kts 356°
2026-05-04 15:49 44.39450 25.64135 6040 ft 198 kts 356°
2026-05-04 15:49 44.40817 25.64077 5766 ft 197 kts 12°
2026-05-04 15:49 44.42022 25.64955 5449 ft 198 kts 40°
2026-05-04 15:50 44.42210 25.65191 5417 ft 199 kts 41°
2026-05-04 15:50 44.43161 25.66577 5109 ft 201 kts 45°
2026-05-04 15:50 44.44103 25.68056 4714 ft 207 kts 46°
2026-05-04 15:50 44.45082 25.69591 4269 ft 215 kts 46°
2026-05-04 15:51 44.46105 25.71188 3815 ft 224 kts 46°
2026-05-04 15:51 44.47167 25.72835 3360 ft 231 kts 46°
2026-05-04 15:51 44.48262 25.74532 2899 ft 238 kts 46°
2026-05-04 15:51 44.49381 25.76257 2553 ft 238 kts 46°
2026-05-04 15:52 44.50461 25.77915 2495 ft 227 kts 46°
2026-05-04 15:52 44.51496 25.79497 2489 ft 212 kts 46°
2026-05-04 15:52 44.52458 25.80975 2515 ft 200 kts 46°
2026-05-04 15:52 44.53390 25.82419 2496 ft 200 kts 46°
2026-05-04 15:53 44.54324 25.83869 2500 ft 201 kts 46°
2026-05-04 15:53 44.55247 25.85342 2501 ft 201 kts 51°
2026-05-04 15:53 44.55857 25.87036 2504 ft 190 kts 72°
2026-05-04 15:53 44.56115 25.88822 2500 ft 185 kts 81°
2026-05-04 15:54 44.56281 25.90575 2501 ft 172 kts 82°
2026-05-04 15:54 44.56412 25.92128 2512 ft 152 kts 82°
2026-05-04 15:54 44.56526 25.93569 2447 ft 146 kts 83°
2026-05-04 15:54 44.56634 25.94982 2255 ft 145 kts 83°
2026-05-04 15:55 44.56744 25.96383 2051 ft 144 kts 83°
2026-05-04 15:55 44.56852 25.97778 1873 ft 143 kts 83°
2026-05-04 15:55 44.56960 25.99167 1683 ft 143 kts 84°
2026-05-04 15:55 44.57064 26.00550 1479 ft 143 kts 84°
2026-05-04 15:56 44.57170 26.01932 1289 ft 142 kts 84°
2026-05-04 15:56 44.57274 26.03307 1095 ft 141 kts 84°
2026-05-04 15:56 44.57375 26.04635 895 ft 137 kts 85°
2026-05-04 15:56 44.57475 26.05952 706 ft 135 kts 85°
2026-05-04 15:57 44.57573 26.07257 526 ft 133 kts 85°
2026-05-04 15:57 44.57675 26.08544 356 ft 131 kts 84°
2026-05-04 15:57 44.57763 26.09732 327 ft 102 kts 84°
2026-05-04 15:57 44.57811 26.10360 327 ft 43 kts 84°
2026-05-04 15:58 44.57828 26.10606 323 ft 36 kts 84°
2026-05-04 15:58 44.57813 26.10958 323 ft 22 kts 108°
2026-05-04 15:58 44.57776 26.11091 322 ft 11 kts 113°
2026-05-04 15:58 44.57734 26.11166 325 ft 7 kts 160°
2026-05-04 15:59 44.57719 26.11159 327 ft 3 kts 205°
2026-05-04 15:59 44.57691 26.11070 325 ft 16 kts 262°
2026-05-04 15:59 44.57676 26.10906 327 ft 18 kts 264°
2026-05-04 15:59 44.57662 26.10716 324 ft 21 kts 264°
2026-05-04 16:00 44.57646 26.10501 325 ft 23 kts 264°
2026-05-04 16:00 44.57629 26.10263 324 ft 26 kts 264°
2026-05-04 16:00 44.57609 26.10009 324 ft 25 kts 264°
2026-05-04 16:00 44.57591 26.09770 326 ft 26 kts 264°
2026-05-04 16:01 44.57572 26.09522 327 ft 25 kts 264°
2026-05-04 16:01 44.57554 26.09274 323 ft 26 kts 264°
2026-05-04 16:01 44.57535 26.09016 327 ft 27 kts 264°
2026-05-04 16:01 44.57515 26.08741 325 ft 29 kts 264°
2026-05-04 16:02 44.57476 26.08485 323 ft 15 kts 226°
2026-05-04 16:02 44.57458 26.08477 323 ft 4 kts 188°
2026-05-04 16:02 44.57309 26.08493 324 ft 18 kts 174°
2026-05-04 16:03 44.57168 26.08513 325 ft 22 kts 174°
2026-05-04 16:03 44.57006 26.08537 323 ft 24 kts 174°
2026-05-04 16:03 44.56912 26.08519 323 ft 8 kts 225°
2026-05-04 16:03 44.56899 26.08450 326 ft 7 kts 278°
2026-05-04 16:04 44.56936 26.08405 324 ft 9 kts 338°
2026-05-04 16:04 44.57023 26.08287 324 ft 4 kts 309°
2026-05-04 16:04 44.57036 26.08265 322 ft 0 kts 309°